When you browse on this site, cookies collect data to enhance your experience and personalize the content and advertising you see.
Visit our Privacy Policy to learn more. By continuing to use the site, you agree to this use of cookies and data.

Meteo pe oră la Klagenfurt

Astăzi, 4 Iulie, Sâmbătă

Timp Temperatura Precipitaţii Vânt Presiune Umiditate
00:00 +13°C° 0 mm 1 m/s 692 mmHg 86%
01:00 +13°C° 0 mm 1 m/s 692 mmHg 88%
02:00 +13°C° 0 mm 1 m/s 692 mmHg 89%
03:00 +12°C° 0 mm 1 m/s 691 mmHg 91%
04:00 +12°C° 0 mm 1 m/s 691 mmHg 93%
05:00 +13°C° 0 mm 1 m/s 692 mmHg 88%
06:00 +15°C° 0 mm 1 m/s 692 mmHg 83%
07:00 +16°C° 0 mm 1 m/s 693 mmHg 77%
08:00 +19°C° 0 mm 1 m/s 693 mmHg 69%
09:00 +21°C° 0 mm 1 m/s 693 mmHg 60%
10:00 +23°C° 0 mm 1 m/s 693 mmHg 51%
11:00 +23°C° 0 mm 1 m/s 693 mmHg 47%
12:00 +24°C° 0 mm 2 m/s 693 mmHg 44%
13:00 +25°C° 0 mm 2 m/s 693 mmHg 40%
14:00 +25°C° 0 mm 2 m/s 693 mmHg 41%
15:00 +25°C° 0 mm 2 m/s 693 mmHg 42%
16:00 +25°C° 0 mm 2 m/s 692 mmHg 43%
17:00 +23°C° 0 mm 1 m/s 692 mmHg 53%
18:00 +22°C° 0 mm 1 m/s 692 mmHg 63%
19:00 +18°C° 0 mm 0 m/s 692 mmHg 74%
20:00 +18°C° 0 mm 1 m/s 692 mmHg 77%
21:00 +16°C° 0 mm 1 m/s 692 mmHg 80%
22:00 +14°C° 0 mm 1 m/s 692 mmHg 84%
23:00 +14°C° 0 mm 1 m/s 692 mmHg 85%

Mâine, 5 Iulie, Duminică

Timp Temperatura Precipitaţii Vânt Presiune Umiditate
00:00 +13°C° 0 mm 1 m/s 692 mmHg 86%
01:00 +13°C° 0 mm 1 m/s 692 mmHg 87%
02:00 +13°C° 0 mm 1 m/s 692 mmHg 87%
03:00 +12°C° 0 mm 1 m/s 691 mmHg 88%
04:00 +12°C° 0 mm 1 m/s 691 mmHg 89%
05:00 +14°C° 0 mm 1 m/s 692 mmHg 83%
06:00 +16°C° 0 mm 1 m/s 692 mmHg 78%
07:00 +17°C° 0 mm 0 m/s 693 mmHg 72%
08:00 +21°C° 0 mm 1 m/s 693 mmHg 65%
09:00 +23°C° 0 mm 1 m/s 693 mmHg 58%
10:00 +25°C° 0 mm 1 m/s 694 mmHg 51%
11:00 +26°C° 0 mm 1 m/s 693 mmHg 48%
12:00 +26°C° 0 mm 1 m/s 693 mmHg 44%
13:00 +27°C° 0 mm 1 m/s 693 mmHg 41%
14:00 +27°C° 0 mm 1 m/s 692 mmHg 41%
15:00 +27°C° 0 mm 1 m/s 692 mmHg 42%
16:00 +27°C° 0 mm 1 m/s 692 mmHg 43%
17:00 +25°C° 0 mm 1 m/s 691 mmHg 53%
18:00 +24°C° 0 mm 1 m/s 691 mmHg 64%
19:00 +22°C° 0 mm 1 m/s 691 mmHg 74%
20:00 +20°C° 0 mm 1 m/s 690 mmHg 77%
21:00 +19°C° 0 mm 1 m/s 690 mmHg 80%
22:00 +16°C° 0 mm 1 m/s 690 mmHg 83%
23:00 +16°C° 0 mm 1 m/s 690 mmHg 83%

Poimâine, 6 Iulie, Luni

Timp Temperatura Precipitaţii Vânt Presiune Umiditate
00:00 +16°C° 0 mm 1 m/s 690 mmHg 84%
01:00 +15°C° 0 mm 1 m/s 689 mmHg 85%
02:00 +15°C° 0 mm 1 m/s 689 mmHg 86%
03:00 +15°C° 0 mm 1 m/s 689 mmHg 86%
04:00 +14°C° 0 mm 1 m/s 688 mmHg 87%
05:00 +16°C° 0 mm 1 m/s 689 mmHg 82%
06:00 +17°C° 0 mm 0 m/s 689 mmHg 77%
07:00 +19°C° 0 mm 0 m/s 690 mmHg 72%
08:00 +23°C° 0 mm 1 m/s 690 mmHg 66%
09:00 +24°C° 0 mm 1 m/s 690 mmHg 59%
10:00 +26°C° 0 mm 1 m/s 690 mmHg 53%
11:00 +26°C° 0.1 mm 1 m/s 689 mmHg 53%
12:00 +27°C° 0.1 mm 1 m/s 689 mmHg 53%
13:00 +27°C° 0.1 mm 2 m/s 689 mmHg 54%
14:00 +27°C° 0.1 mm 2 m/s 688 mmHg 56%
15:00 +27°C° 0.1 mm 2 m/s 688 mmHg 57%
16:00 +26°C° 0.1 mm 1 m/s 688 mmHg 59%
17:00 +25°C° 0.8 mm 1 m/s 688 mmHg 70%
18:00 +23°C° 0.8 mm 1 m/s 687 mmHg 80%
19:00 +21°C° 0.8 mm 1 m/s 687 mmHg 91%
20:00 +20°C° 1.9 mm 1 m/s 687 mmHg 93%
21:00 +17°C° 1.9 mm 2 m/s 688 mmHg 95%
22:00 +16°C° 1.9 mm 2 m/s 688 mmHg 97%
23:00 +14°C° 3 mm 2 m/s 688 mmHg 96%

7 Iulie, Marţi

Timp Temperatura Precipitaţii Vânt Presiune Umiditate
00:00 +12°C° 3 mm 2 m/s 688 mmHg 96%
01:00 +10°C° 3 mm 3 m/s 689 mmHg 96%
02:00 +9°C° 3.9 mm 3 m/s 689 mmHg 96%
03:00 +8°C° 3.9 mm 3 m/s 689 mmHg 96%
04:00 +7°C° 3.9 mm 2 m/s 689 mmHg 97%
05:00 +7°C° 1.8 mm 2 m/s 690 mmHg 96%
06:00 +7°C° 1.8 mm 2 m/s 690 mmHg 96%
07:00 +8°C° 1.8 mm 2 m/s 690 mmHg 96%
08:00 +10°C° 0.1 mm 2 m/s 691 mmHg 83%
09:00 +14°C° 0.1 mm 2 m/s 691 mmHg 70%
10:00 +16°C° 0.1 mm 2 m/s 692 mmHg 58%
11:00 +18°C° 0 mm 2 m/s 692 mmHg 53%
12:00 +19°C° 0 mm 2 m/s 692 mmHg 49%
13:00 +20°C° 0 mm 2 m/s 692 mmHg 45%
14:00 +20°C° 0 mm 2 m/s 692 mmHg 46%
15:00 +20°C° 0 mm 2 m/s 692 mmHg 47%
16:00 +20°C° 0 mm 2 m/s 692 mmHg 48%
17:00 +19°C° 0 mm 2 m/s 692 mmHg 58%
18:00 +18°C° 0 mm 1 m/s 692 mmHg 68%
19:00 +16°C° 0 mm 1 m/s 692 mmHg 77%
20:00 +14°C° 0 mm 1 m/s 692 mmHg 80%
21:00 +13°C° 0 mm 1 m/s 692 mmHg 84%
22:00 +11°C° 0 mm 1 m/s 692 mmHg 87%
23:00 +11°C° 0 mm 1 m/s 692 mmHg 88%

8 Iulie, Miercuri

Timp Temperatura Precipitaţii Vânt Presiune Umiditate
00:00 +10°C° 0 mm 1 m/s 692 mmHg 89%
01:00 +9°C° 0 mm 0 m/s 692 mmHg 91%
02:00 +9°C° 0 mm 0 m/s 692 mmHg 91%
03:00 +8°C° 0 mm 0 m/s 692 mmHg 92%
04:00 +8°C° 0 mm 0 m/s 692 mmHg 93%
05:00 +10°C° 0 mm 0 m/s 692 mmHg 87%
06:00 +11°C° 0 mm 0 m/s 692 mmHg 82%
07:00 +13°C° 0 mm 0 m/s 693 mmHg 76%
08:00 +16°C° 0 mm 1 m/s 693 mmHg 69%
09:00 +19°C° 0 mm 1 m/s 693 mmHg 62%
10:00 +20°C° 0 mm 1 m/s 694 mmHg 55%
11:00 +21°C° 0 mm 1 m/s 693 mmHg 52%
12:00 +22°C° 0 mm 1 m/s 693 mmHg 48%
13:00 +24°C° 0 mm 1 m/s 693 mmHg 45%
14:00 +23°C° 0 mm 1 m/s 693 mmHg 45%
15:00 +23°C° 0 mm 1 m/s 693 mmHg 45%
16:00 +23°C° 0 mm 2 m/s 693 mmHg 46%
17:00 +22°C° 0 mm 1 m/s 692 mmHg 54%
18:00 +20°C° 0 mm 1 m/s 692 mmHg 63%
19:00 +18°C° 0 mm 1 m/s 692 mmHg 72%
20:00 +16°C° 0 mm 1 m/s 692 mmHg 73%
21:00 +14°C° 0 mm 1 m/s 692 mmHg 74%
22:00 +13°C° 0 mm 1 m/s 692 mmHg 76%
23:00 +12°C° 0 mm 1 m/s 691 mmHg 77%

9 Iulie, Joi

Timp Temperatura Precipitaţii Vânt Presiune Umiditate
00:00 +12°C° 0 mm 1 m/s 691 mmHg 79%
01:00 +12°C° 0 mm 1 m/s 691 mmHg 80%
02:00 +11°C° 0 mm 1 m/s 691 mmHg 81%
03:00 +10°C° 0 mm 0 m/s 691 mmHg 82%
04:00 +10°C° 0 mm 0 m/s 690 mmHg 83%
05:00 +12°C° 0 mm 0 m/s 691 mmHg 77%
06:00 +14°C° 0 mm 0 m/s 691 mmHg 72%
07:00 +16°C° 0 mm 0 m/s 692 mmHg 67%
08:00 +20°C° 0 mm 1 m/s 692 mmHg 60%
09:00 +22°C° 0 mm 1 m/s 692 mmHg 52%
10:00 +24°C° 0 mm 1 m/s 693 mmHg 45%
11:00 +25°C° 0 mm 1 m/s 693 mmHg 42%
12:00 +25°C° 0 mm 1 m/s 693 mmHg 39%
13:00 +26°C° 0 mm 1 m/s 692 mmHg 36%
14:00 +26°C° 0 mm 1 m/s 692 mmHg 37%
15:00 +26°C° 0 mm 1 m/s 692 mmHg 39%
16:00 +26°C° 0 mm 1 m/s 692 mmHg 40%
17:00 +24°C° 0 mm 1 m/s 691 mmHg 51%
18:00 +22°C° 0 mm 1 m/s 691 mmHg 61%
19:00 +20°C° 0 mm 1 m/s 690 mmHg 72%
20:00 +19°C° 0 mm 1 m/s 690 mmHg 72%
21:00 +18°C° 0 mm 1 m/s 691 mmHg 72%
22:00 +16°C° 0 mm 1 m/s 691 mmHg 72%
23:00 +16°C° 0 mm 1 m/s 690 mmHg 73%
Arată mai mult